This is the latest recevied weather packets stored in our database for station/object K9NZF-1. If no packets are shown the sender has not sent any weather packets the latest 10 day(s).
| Time | Temp. | Humidity | Pressure | Rain* | Wind** | Luminosity | Snow |
|---|---|---|---|---|---|---|---|
| 1777579201 | 13.33° C | 54% | 1015.3 hPa | 0 mm | - | 969 W/m² | - |
| 1777579141 | 12.78° C | 55% | 1015.4 hPa | 0 mm | - | 301 W/m² | - |
| 1777579082 | 12.78° C | 52% | 1015.4 hPa | 0 mm | - | 301 W/m² | - |
| 1777579022 | 12.78° C | 54% | 1015.4 hPa | 0 mm | - | 301 W/m² | - |
| 1777578962 | 12.78° C | 55% | 1015.4 hPa | 0 mm | - | 301 W/m² | - |
| 1777578901 | 12.78° C | 55% | 1015.4 hPa | 0 mm | - | 341 W/m² | - |
| 1777578842 | 13.33° C | 52% | 1015.4 hPa | 0 mm | - | 243 W/m² | - |
| 1777578782 | 13.33° C | 52% | 1015.4 hPa | 0 mm | - | 243 W/m² | - |
| 1777578722 | 13.33° C | 53% | 1015.4 hPa | 0 mm | - | 216 W/m² | - |
| 1777578662 | 13.33° C | 52% | 1015.4 hPa | 0 mm | - | 216 W/m² | - |
| 1777578601 | 13.33° C | 52% | 1015.4 hPa | 0 mm | - | 216 W/m² | - |
| 1777578546 | 13.33° C | 52% | 1015.4 hPa | 0 mm | - | 216 W/m² | - |
| 1777578481 | 13.89° C | 52% | 1015.4 hPa | 0 mm | - | 174 W/m² | - |
| 1777578421 | 13.89° C | 51% | 1015.4 hPa | 0 mm | - | 151 W/m² | - |
| 1777578362 | 13.89° C | 52% | 1015.4 hPa | 0 mm | - | 142 W/m² | - |
| 1777578302 | 13.89° C | 55% | 1015.3 hPa | 0 mm | - | 155 W/m² | - |
| 1777578241 | 13.89° C | 56% | 1015.3 hPa | 0 mm | - | 905 W/m² | - |
| 1777578181 | 13.89° C | 55% | 1015.3 hPa | 0 mm | - | 898 W/m² | - |
| 1777578124 | 13.89° C | 53% | 1015.3 hPa | 0 mm | - | 898 W/m² | - |
| 1777578062 | 13.89° C | 54% | 1015.3 hPa | 0 mm | - | 898 W/m² | - |
| 1777578002 | 13.89° C | 54% | 1015.3 hPa | 0 mm | - | 893 W/m² | - |
| 1777577942 | 13.89° C | 52% | 1015.3 hPa | 0 mm | - | 895 W/m² | - |
| 1777577882 | 13.89° C | 52% | 1015.4 hPa | 0 mm | - | 900 W/m² | - |
| 1777577821 | 13.89° C | 55% | 1015.4 hPa | 0 mm | - | 904 W/m² | - |
| 1777577762 | 13.33° C | 57% | 1015.4 hPa | 0 mm | - | 904 W/m² | - |
* Rain latest hour (hover to see other rain measurements)
** Current wind speed in m/s (hover to see current wind gust speed)